Location: Arcones
(41.1182°N, 3.7238°W)
Time: 04:00:08
(UTC+00:00)

Cosmos 2263 Rocket - Pass Details

Date: 15 March 2026
Orbit: 823 x 846 km, 71.0° (Epoch: 17 April)

Event Time Altitude Azimuth Distance (km) Brightness Sun altitude
Rises 22:05:00 0° 345° (NNW) 3,397 6.0 -39.8°
Reaches altitude 10° 22:07:52 10° 358° (N) 2,455 5.0 -40.2°
Enters shadow 22:08:31 13° 2° (N) 2,262 4.7 -40.3°
